Regional Weather Roundup
Issued by NWS Cleveland, OH

Home | Current Version | Previous Version | Text Only | Print | Product List | Glossary Off
Versions: 1 2 3 4 5 6 7 8 9 10 11 12 13 14 15 16 17 18 19 20 21 22 23 24 25 26 27 28 29 30 31 32 33 34 35 36 37 38 39 40 41 42 43 44 45 46 47 48 49 50

000
ASUS41 KCLE 251002
RWRCLE
OHIO REGIONAL WEATHER ROUNDUP
NATIONAL WEATHER SERVICE CLEVELAND, OH
600 AM EDT TUE JUL 25 2017

NOTE: "FAIR" INDICATES FEW OR NO CLOUDS BELOW 12,000 FEET WITH NO
SIGNIFICANT WEATHER AND/OR OBSTRUCTIONS TO VISIBILITY.

OHZ001>008-015>018-024>027-034-035-043-044-251100-
   NORTHWEST OHIO

CITY           SKY/WX    TMP DP  RH WIND       PRES   REMARKS
DEFIANCE       CLEAR    N/A N/A N/A CALM      30.18R
FINDLAY        CLEAR     57  52  83 CALM      30.16R
TOLEDO EXPRESS CLEAR     54  53  97 CALM      30.17R
TOLEDO EXEC    PTCLDY    58  54  86 N3        30.18R
LIMA           CLEAR     52  52 100 CALM      30.17R FOG
$$

OHZ009>014-019>023-028>033-038-089-251100-
   NORTHEAST OHIO

CITY           SKY/WX    TMP DP  RH WIND       PRES   REMARKS
CLE-HOPKINS    CLOUDY    68  55  63 N12       30.14R
CLE-LAKEFRONT  CLOUDY    67  56  67 N12G22    30.11R
CUY CO. ARPT   NOT AVBL
LORAIN-ELYRIA  CLOUDY    62  53  72 CALM      30.15R
ASHTABULA      CLOUDY    63  57  81 N5        30.12R
AKRON-CANTON   CLOUDY    64  55  72 N7        30.13R
WOOSTER        CLOUDY    61  58  90 NW3       30.15R
MANSFIELD      CLOUDY    59  57  93 NW5       30.16R
YOUNGSTOWN     LGT RAIN  61  58  90 N5        30.11R
$$

OHZ042-051>053-060>062-070>072-077>081-251100-
  SOUTHWEST OHIO

CITY           SKY/WX    TMP DP  RH WIND       PRES   REMARKS
CINC-COVINGTON PTCLDY    65  61  87 E10       30.15R
CINC-LUNKEN    CLEAR     61  61 100 CALM      30.16R
HAMILTON       CLEAR     58  58 100 CALM      30.16R
DAYTON         CLEAR     57  55  93 CALM      30.18R
WRIGHT-PAT AFB CLEAR     57  57 100 CALM      30.16R
DAYTON GENERAL CLEAR     58  56  93 NE3       30.15R
WILMINGTON     CLEAR     57  57 100 NE3       30.16R FOG
$$

OHZ036-037-039>041-045>050-054>059-063>069-073>076-082>088-251100-
  CENTRAL AND SOUTHEAST OHIO

CITY           SKY/WX    TMP DP  RH WIND       PRES   REMARKS
COLUMBUS       PTCLDY    59  58  96 CALM      30.15R
OSU AIRPORT    CLEAR     58  58 100 N3        30.16R FOG
BOLTON FIELD   CLEAR     55  55 100 CALM      30.17R FOG
RICKENBACK AFB CLEAR     58  58 100 CALM      30.15R
NEWARK         FOG       55  54  96 CALM      30.15R VSB 1/4
MARION         CLEAR     55  53  93 CALM      30.16R
LANCASTER      FOG       55  55 100 CALM      30.16R VSB 3/4
ZANESVILLE     CLOUDY    59  57  93 CALM      30.14R
NEW PHILLY     NOT AVBL
$$



USA.gov is the U.S. government's official web portal to all federal, state and local government web resources and services.